Poplar Bluff, MO

5:19 PM CST on November 11, 2019 (GMT -0600)
Poplar Bluff Municipal

Weather History for KPOF - October, 2019

Change the Weather History Date:

Sunday, October 20, 2019

  Actual Average Record
Temperature  
Mean Temperature 62 °F 58 °F  
Max Temperature 72 °F 70 °F 90 °F (1920)
Min Temperature 51 °F 45 °F 28 °F (1966)
Degree Days  
Heating Degree Days 4 8  
Month to date heating degree days 116 115  
Since 1 July heating degree days 116 144  
Cooling Degree Days 0 1  
Month to date cooling degree days 49 30  
Year to date cooling degree days 1830 1557  
Growing Degree Days 12 (Base 50)    
Moisture  
Dew Point 53 °F    
Average Humidity 77    
Maximum Humidity 96    
Minimum Humidity 49    
Precipitation  
Precipitation 0.00 in 0.16 in 0.87 in (1993)
Month to date precipitation 1.39 2.73  
Year to date precipitation 56.01 37.26  
Sea Level Pressure  
Sea Level Pressure 29.85 in    
Wind  
Wind Speed 4 mph ()    
Max Wind Speed 13 mph    
Max Gust Speed 19 mph    
Visibility 9.6 miles    
Events      
T = Trace of Precipitation, MM = Missing Value Source: Averaged Metar Reports

Daily Weather History Graph

Daily Weather History Graph

Search for Another Location

Airport or City:

Astronomy

Oct. 20, 2019 Rise Set
Actual Time 7:13 AM CDT 6:18 PM CDT
Civil Twilight 6:46 AM CDT 6:44 PM CDT
Nautical Twilight 6:16 AM CDT 7:14 PM CDT
Astronomical Twilight 5:46 AM CDT 7:44 PM CDT
Moon 11:33 PM CDT (10/20) 1:35 PM CDT (10/20)
Length of Visible Light 11h 57m
Length of Day
11h 05m
Waning Gibbous, 59% of the Moon is Illuminated
Oct 20
Waning Gibbous
Oct 21
Last Quarter
Oct 27
New
Nov 4
First Quarter
Nov 12
Full

Hourly Weather History & Observations

Time (CDT) Temp. Dew Point Humidity Pressure Visibility Wind Dir Wind Speed Gust Speed Precip Events Conditions
12:53 AM 54.0 °F 51.1 °F 90% 29.81 in 10.0 mi NNW 5.8 mph - N/A   Overcast
1:53 AM 55.0 °F 50.0 °F 83% 29.81 in 10.0 mi Calm Calm - N/A   Overcast
2:53 AM 54.0 °F 51.1 °F 90% 29.83 in 10.0 mi Calm Calm - N/A   Overcast
3:53 AM 53.1 °F 51.1 °F 93% 29.83 in 9.0 mi Calm Calm - N/A   Overcast
4:53 AM 53.1 °F 51.1 °F 93% 29.83 in 10.0 mi North 4.6 mph - N/A   Overcast
5:53 AM 54.0 °F 51.1 °F 90% 29.86 in 10.0 mi Calm Calm - N/A   Overcast
6:53 AM 53.1 °F 50.0 °F 89% 29.88 in 10.0 mi Calm Calm - N/A   Mostly Cloudy
7:53 AM 52.0 °F 50.0 °F 93% 29.89 in 3.0 mi Calm Calm - N/A   Clear
8:53 AM 57.0 °F 52.0 °F 83% 29.91 in 10.0 mi NE 6.9 mph - N/A   Partly Cloudy
9:01 AM 57.0 °F 52.0 °F 83% 29.91 in 10.0 mi ENE 6.9 mph - N/A   Scattered Clouds
9:28 AM 57.0 °F 53.1 °F 87% 29.92 in 10.0 mi NE 5.8 mph - N/A   Overcast
9:53 AM 57.0 °F 53.1 °F 87% 29.94 in 10.0 mi NNE 5.8 mph - N/A   Overcast
10:38 AM 59.0 °F 53.1 °F 81% 29.93 in 9.0 mi Variable 5.8 mph - N/A   Overcast
10:53 AM 61.0 °F 53.1 °F 75% 29.93 in 9.0 mi NE 8.1 mph - N/A   Mostly Cloudy
11:07 AM 62.1 °F 54.0 °F 75% 29.92 in 9.0 mi NE 8.1 mph - N/A   Mostly Cloudy
11:53 AM 63.0 °F 54.0 °F 72% 29.92 in 10.0 mi Variable 4.6 mph - N/A   Overcast
12:53 PM 66.9 °F 54.0 °F 63% 29.89 in 10.0 mi Variable 5.8 mph - N/A   Mostly Cloudy
1:53 PM 68.0 °F 53.1 °F 59% 29.86 in 10.0 mi SE 5.8 mph - N/A   Overcast
2:53 PM 70.0 °F 53.1 °F 55% 29.83 in 10.0 mi East 8.1 mph - N/A   Overcast
3:53 PM 71.1 °F 52.0 °F 51% 29.83 in 10.0 mi East 6.9 mph - N/A   Overcast
4:53 PM 71.1 °F 53.1 °F 53% 29.83 in 10.0 mi ESE 5.8 mph - N/A   Overcast
5:53 PM 69.1 °F 54.0 °F 58% 29.81 in 10.0 mi ESE 4.6 mph - N/A   Scattered Clouds
6:53 PM 64.9 °F 55.0 °F 70% 29.80 in 10.0 mi East 4.6 mph - N/A   Scattered Clouds
7:53 PM 61.0 °F 55.0 °F 81% 29.81 in 10.0 mi ENE 3.5 mph - N/A   Clear
8:53 PM 59.0 °F 54.0 °F 83% 29.80 in 10.0 mi North 3.5 mph - N/A   Mostly Cloudy
9:53 PM 63.0 °F 55.0 °F 75% 29.80 in 10.0 mi ESE 6.9 mph - N/A   Mostly Cloudy
10:53 PM 66.0 °F 57.9 °F 75% 29.77 in 10.0 mi SSE 9.2 mph - N/A   Partly Cloudy
11:53 PM 66.0 °F 59.0 °F 78% 29.72 in 10.0 mi SSE 10.4 mph - N/A   Clear